Regional Weather Roundup
Issued by NWS

Home | Current Version | Previous Version | Text Only | Print | Product List | Glossary Off
Versions: 1 2 3 4 5 6 7 8 9 10 11 12 13 14 15 16 17 18 19 20 21 22 23 24 25 26 27 28 29 30 31 32 33 34 35 36 37 38 39 40 41 42 43 44 45 46 47 48 49 50

000
ASUS43 KMPX 251410
RWRMN
WEATHER ROUNDUP FOR MINNESOTA
NATIONAL WEATHER SERVICE TWIN CITIES/CHANHASSEN MN
900 AM CDT TUE JUL 25 2017


NOTE: "FAIR" INDICATES FEW OR NO CLOUDS BELOW 12,000 FEET WITH NO
SIGNIFICANT WEATHER AND/OR OBSTRUCTIONS TO VISIBILITY. N/A MEANS
CURRENT SKY AND/OR WEATHER CONDITIONS ARE NOT AVAILABLE.

MNZ060>063-068>070-251500-
   Twin Cities Metro

CITY           SKY/WX    TMP DP  RH WIND       PRES   REMARKS
TWIN CITIES    CLOUDY    69  62  78 S20       30.00F
ST PAUL        CLOUDY    69  64  84 SE17      30.01F
CRYSTAL        CLOUDY    70  61  73 S16G23    29.98S
BLAINE         CLOUDY    72  64  78 S14G20    30.00R
LAKEVILLE      CLOUDY    66  66 100 S16G28    30.01F
EDEN PRAIRIE   CLOUDY    70  64  81 S16G29    29.99F
SOUTH ST PAUL  CLOUDY    68  63  83 S13G18    30.02F
LAKE ELMO      FAIR      68  63  83 S16       30.05S
$$
MNZ001>005-007-008-013>017-022>024-027-028-251500-
   Northwest Minnesota

CITY           SKY/WX    TMP DP  RH WIND       PRES   REMARKS
BEMIDJI        MOSUNNY   68  63  83 S12       29.94R
HALLOCK        CLOUDY    70  66  88 S9        29.84F
ROSEAU         CLOUDY    66  63  88 S13       29.88F
WARROAD        CLOUDY    68  64  88 S6        29.90S
THIEF RVR FALL CLOUDY    70  65  84 S8        29.90F
CROOKSTON      MOSUNNY   70  64  83 S7        29.88F
FOSSTON        SUNNY     70  63  78 S9        29.91F
DETROIT LAKES  MOSUNNY   70  64  83 SE9       29.92F
MOORHEAD       MOSUNNY   72  64  78 S13       29.90R
PARK RAPIDS    CLOUDY    70  64  81 SE12      29.94S
MAHNOMEN       FAIR      70  64  81 S8G16     29.89F
$$
MNZ006-009>011-018-025>026-251500-
   North Central Minnesota

CITY           SKY/WX    TMP DP  RH WIND       PRES   REMARKS
BAUDETTE       CLOUDY    69  63  81 S13       29.91F
FLAG ISLAND    PTSUNNY   68  64  88 S14G20    29.86F
INTL FALLS     CLOUDY    67  60  78 S6        29.96S
WASKISH        CLOUDY    70  64  83 S6        29.94R
BIG FORK       PTSUNNY   68  63  83 S6G16     29.97R
LONGVILLE      CLOUDY    70  63  78 S10       29.96S
GRAND RAPIDS   CLOUDY    68  63  84 S13       29.99S
CRANE LAKE     CLOUDY    64  61  88 S6        30.01S
ORR            MOSUNNY   66  59  77 S9        29.98R
COOK           CLOUDY    66  61  82 SE9       30.02R
WALKER         CLOUDY    67  62  85 S7        29.94F
$$
MNZ012-019>021-037-251500-
   Northeast Minnesota

CITY           SKY/WX    TMP DP  RH WIND       PRES   REMARKS
DULUTH         CLOUDY    65  61  87 SE12      30.02F
ELY            CLOUDY    66  59  77 S13       30.03R
HIBBING        MOSUNNY   65  62  90 VRB5      30.01R
EVELETH        PTSUNNY   67  58  74 S7        30.03S
DULUTH HARBOR  CLOUDY    64  61  88 NE10      30.03F
TWO HARBORS    CLOUDY    68  63  83 SE6       30.03F
GRAND MARAIS     N/A     58  52  80 E3        30.08S
G MARAIS ARPRT MOSUNNY   63  54  72 SE5       30.10S
$$
MNZ029>031-032-039>041-046>048-054>057-064-251500-
   West Central Minnesota

CITY           SKY/WX    TMP DP  RH WIND       PRES   REMARKS
FERGUS FALLS   MOSUNNY   72  64  78 S12       29.90S
WHEATON        SUNNY     72  66  83 S7        29.89S
MORRIS         MOSUNNY   73  66  78 S16       29.88S
ALEXANDRIA     CLOUDY    70  65  84 S16       29.93S
ELBOW LAKE     FAIR      71  66  85 S13       29.90S
WADENA         CLOUDY    68  64  88 S9        29.93S
GLENWOOD       SUNNY     72  66  83 S15       29.93S
APPLETON       SUNNY     73  64  73 S12       29.87F
BENSON         MOSUNNY   73  64  73 SW15      29.91S
ORTONVILLE     SUNNY     72  66  83 MISG      29.88R
MADISON        SUNNY     75  68  78 SE9       29.87S
WILLMAR        FAIR      72  66  83 S9G20     29.93F
$$
MNZ033>034-036-042>043-049>051-058-059-251500-
   Central Minnesota

CITY           SKY/WX    TMP DP  RH WIND       PRES   REMARKS
ST CLOUD       SUNNY     71  66  84 SE14G22   29.95F
SAUK CENTRE    CLOUDY    68  64  88 SE9G16    29.94S
PAYNESVILLE    MOSUNNY   71  65  81 S13G22    29.94F
AITKIN         MOSUNNY   70  63  78 SE14G21   29.96S
PINE RIVER     CLOUDY    68  63  83 S7        29.99R
BRAINERD       CLOUDY    68  63  84 S14       29.96S
STAPLES        CLOUDY    68  63  83 S8        29.95R
LONG PRAIRIE   CLOUDY    68  64  88 SE15G21   29.95R
LITTLE FALLS   CLOUDY    68  61  77 SE8       29.95S
LITCHFIELD     MOSUNNY   72  66  83 SE12G17   29.94F
BUFFALO        MOSUNNY   71  62  73 SE12G23   29.97F
MAPLE LAKE     SUNNY     71  65  82 S10G20    29.97F
HUTCHINSON     CLOUDY    71  66  85 SE10G16   29.96S
$$
MNZ037-044-045-052-053-251500-
   East Central Minnesota

CITY           SKY/WX    TMP DP  RH WIND       PRES   REMARKS
PRINCETON      CLOUDY    72  64  78 SE13      29.96F
MORA           CLOUDY    64  61  88 SE8       30.00F
CAMBRIDGE      CLOUDY    72  61  68 SE13      29.96F
RUSH CITY      RAIN      64  61  89 SE10      30.01S
MOOSE LAKE     PTSUNNY   68  61  77 CALM      29.99F
HINCKLEY       PTSUNNY   64  63  94 SE8       30.01F
CLOQUET        CLOUDY    66  61  82 SE9       30.01F
MCGREGOR       MOSUNNY   70  63  78 S12G17    29.99S
$$
MNZ071>073-080-081-089-090-097-098-251500-
   Southwest Minnesota

CITY           SKY/WX    TMP DP  RH WIND       PRES   REMARKS
MONTEVIDEO     SUNNY     75  66  73 S10       29.88F
GRANITE FALLS  SUNNY     74  67  80 SE12G20   29.90F
CANBY          SUNNY     78  68  71 S5        29.87F
MARSHALL       SUNNY     75  67  76 S17G25    29.89F
REDWOOD FALLS  MOSUNNY   72  65  78 S17G28    29.91F
OLIVIA         MOSUNNY   70  64  83 S14G21    29.91F
PIPESTONE      SUNNY     73  66  78 S17G23    29.91F
WINDOM         CLOUDY    73  64  73 S14G23    29.95F
WORTHINGTON    MOSUNNY   73  66  78 S17G25    29.96F
JACKSON        MOSUNNY   72  63  73 S16       29.98F
TRACY          SUNNY     73  67  81 S22G29    29.89F
SLAYTON        MOSUNNY   71  64  80 S14G22    29.95F HAZE
$$
MNZ065>067-074>077-082>085-091>093-251500-
   South Central Minnesota

CITY           SKY/WX    TMP DP  RH WIND       PRES   REMARKS
MANKATO        CLOUDY    70  64  81 SE17      30.01S
NEW ULM        PTSUNNY   70  63  78 S17       29.95F
ST JAMES       CLOUDY    70  64  83 S18G24    29.97F
FAIRMONT       MOSUNNY   71  66  84 S17G23    29.99F
GLENCOE        MOSUNNY   69  67  90 SE16      29.95F
FARIBAULT      CLOUDY    64  63  94 E15G22    30.07R
OWATONNA       CLOUDY    64  63  94 E14       30.06F
WASECA         CLOUDY    64  61  88 E13       30.06F
ALBERT LEA     CLOUDY    68  64  88 S13G18    30.04F
$$
MNZ078>079-086>088-094>096-251500-
   Southeast Minnesota

CITY           SKY/WX    TMP DP  RH WIND       PRES   REMARKS
ROCHESTER      TSTM      61  61 100 VRB7      30.14R FOG
RED WING       CLOUDY    66  59  77 SE9       30.05F
STANTON        TSTM      67  65  92 S8G22     30.06R VSB 3/4
DODGE CENTER   TSTM      63  61  94 E9        30.12R
WINONA         CLOUDY    63  59  88 SE5       30.12S
AUSTIN         PTSUNNY   64  61  88 SE10G16   30.07F
PRESTON        TSTM      61  58  91 SE10      30.13F
$$
ABBREVIATIONS USED IN REMARKS
   TC - TEMPERATURES IN CELSIUS
  WCI - WIND CHILL INDEX
   HX - HEAT INDEX
  VSB - VISIBILITY
$$




USA.gov is the U.S. government's official web portal to all federal, state and local government web resources and services.